CAPE
1844 1768 1605 1427 1390 1361 1672 1961 1882 2066 2444 2261 2454 2598 2950 3279 3428 3366 3349 3420 3387 3179 3449 3661 3818 3848 3620 3890 4062 3936 3810 3803 3707 3669 3794 3702 3627 3181 2950 3177 3439 3429
1799 1741 1669 1382 1500 1545 1778 1791 2087 2133 2644 2733 2467 2804 3054 3198 3253 3161 3267 3209 3314 3065 3455 3468 3639 3704 3700 3280 3754 3556 3799 3747 3718 3369 3666 3955 3847 3512 3074 3218 3258 3611
1698 1664 1567 1410 1248 1170 925 1355 1834 2077 2099 2164 2352 2840 2836 2845 2906 3057 3138 3107 3070 2810 3466 3502 3486 3713 3500 3510 3664 3425 3208 3763 3545 3093 3715 3851 3626 3556 3483 3016 3182 3355
1714 1602 1390 1304 1215 1129 880 1325 1682 1855 1816 2168 2195 2183 2390 2307 2666 2907 3032 3072 3154 3216 3244 3207 3161 3228 3522 3482 3670 3416 3327 3600 3216 3592 3637 3757 3786 3382 3424 3529 3110 3088
1636 1571 1385 1330 1219 1171 1081 1064 1047 1366 1460 1636 1880 2287 2570 2725 2775 2624 2868 3012 3191 3200 3325 3335 3460 3309 3643 3562 3673 3511 3385 3365 3547 3889 3675 3583 3713 3652 3371 3392 3500 3341
1642 1626 1540 1362 1309 1226 983 793 966 1114 1245 1437 1714 1924 2045 2573 2618 2591 2758 2740 2867 2826 2781 2905 3159 3095 3273 3532 3623 3449 3131 2963 3083 3783 3599 3555 3220 3212 2973 3338 3578 3422
1520 1575 1412 1320 1251 1150 1015 879 880 965 989 1087 1672 1779 1912 2166 2466 2635 2723 2765 2670 2804 2656 2910 3260 3062 3151 3439 3633 3706 3658 3528 3410 3830 3649 3399 3596 3498 3216 3491 3528 3437
1354 1347 1372 1292 1156 1123 1016 902 848 876 913 1160 1332 1637 1894 1875 2297 2347 2514 2614 2567 2766 2930 2932 3348 3525 3182 3164 3484 3519 3526 3169 3348 3777 3755 3559 3667 3617 3630 3428 3506 3609
1316 1352 1323 1246 1127 1051 962 827 783 744 795 820 701 937 1625 1675 2048 2019 2432 2625 2458 2660 3030 2962 3281 3180 3064 3182 3275 3455 3443 3030 2817 3182 3388 3314 3425 3548 3363 3486 3512 3579
1380 1305 1133 1118 1016 994 938 871 730 646 739 590 545 580 989 1522 1742 1920 2375 2627 2477 2676 2843 2811 3050 2927 2944 3017 3221 3341 3334 3442 3401 3336 3179 3113 3022 3082 3072 3294 3303 3390
1283 1210 1119 1041 954 901 890 837 778 651 581 500 486 437 538 907 1499 1829 2164 2404 2088 2269 2476 2605 2601 2732 2876 2632 2755 2904 3207 3054 3135 3358 3297 3268 3132 3215 3206 3254 3270 3172
1313 1205 1114 1051 954 878 825 800 773 719 583 518 472 476 528 546 1027 1278 1521 2022 2028 2011 2205 2431 2471 2589 2698 2608 2370 2481 2783 2839 2937 3191 3037 3155 3155 3122 3294 3358 3194 3298
1283 1246 1249 1107 1064 936 697 599 503 490 636 534 477 475 508 502 597 1014 1296 1459 1921 1967 1875 2174 2400 2305 2550 2655 2472 2399 2592 2774 2527 2828 2862 2936 2998 2798 2669 2892 2998 3042
1319 1330 1351 1301 1188 1176 1060 798 573 572 551 512 554 483 436 443 462 666 1120 1224 1431 1653 1748 2000 2312 2243 2534 2598 2505 2359 2486 2562 2605 2508 2460 2582 2626 2668 2488 2327 2627 2798
1390 1306 1397 1450 1369 1370 1267 1051 706 618 633 636 601 544 410 367 378 413 705 974 1059 1371 1458 1577 1597 1744 1837 2166 2322 2427 2357 2231 2375 2426 2380 2388 2470 2285 2433 2636 2534 2513
1675 1550 1504 1588 1509 1536 1585 1279 1057 798 664 707 707 702 634 484 394 381 401 657 894 1206 1279 1288 1309 1386 1493 1167 1480 2041 2323 1927 2070 2376 2345 2180 2336 2400 2127 2357 2503 2262
1897 1866 1696 1686 1697 1749 1681 1503 1257 884 714 752 772 817 798 774 675 435 275 274 400 686 906 924 956 896 558 4 38 640 1582 2209 2142 2363 2458 2369 2119 2444 2381 1907 2115 2359
1773 1762 1816 1802 1836 1730 1654 1642 1433 1199 1104 959 842 879 907 900 858 782 612 312 247 310 403 529 686 424 2 0 0 0 290 1436 1700 1694 1663 1857 1942 1763 1915 1893 1826 1868
1778 1902 1960 1875 1916 1799 1788 1720 1613 1398 1238 924 949 947 963 963 969 927 896 780 504 409 283 282 362 109 0 0 0 0 0 216 938 1306 1276 1354 1438 1720 1710 1867 2014 2048
1914 1838 1834 1970 2032 1978 1879 1710 1542 1489 1140 1044 1042 1042 1050 1040 1039 1018 999 966 892 801 648 506 363 142 0 0 0 0 0 27 618 1088 1277 1132 1192 1361 1479 1607 2063 2181
2084 1928 1989 2088 2136 2104 1964 1794 1606 1582 1244 1095 1085 1103 1112 1098 1113 1098 1073 1062 1018 963 915 892 861 783 707 296 111 0 0 0 290 932 1102 1101 1202 1421 1680 1524 1726 2025
1501 1836 2113 2011 2080 2058 2008 1867 1752 1772 1658 1176 1162 1166 1156 1162 1177 1169 1152 1138 1105 1057 1032 991 974 976 964 964 937 894 798 668 466 774 976 986 1296 1594 1627 1795 1746 1775
1136 1262 1497 1921 2027 2018 1996 1850 1857 1844 1744 1378 1274 1257 1236 1215 1224 1216 1198 1186 1162 1131 1117 1087 1095 1122 1173 1214 1243 1260 1204 1148 1008 892 806 1062 1066 1358 1618 1667 1753 1853
1333 1220 1196 1242 1876 1941 1981 1861 1738 1747 1401 1339 1308 1297 1277 1253 1258 1244 1254 1253 1253 1263 1245 1256 1283 1333 1361 1422 1522 1602 1606 1547 1449 1290 1062 889 1201 1336 1478 1646 1675 1486
1263 1329 1357 1227 1262 1607 1616 1352 1366 1342 1371 1332 1329 1307 1297 1295 1303 1318 1329 1335 1367 1378 1390 1436 1487 1548 1580 1591 1600 1708 1842 1859 1822 1662 1410 1075 812 979 1217 1246 1469 1442
1194 1270 1286 1422 1404 1325 1305 2025 1450 1382 1402 1357 1356 1361 1389 1409 1411 1444 1458 1476 1482 1488 1507 1536 1593 1642 1693 1706 1724 1736 1865 1996 2058 1986 1780 1436 1080 778 803 1098 1201 1494
Wind_Speed
5 6 5 5 5 5 5 6 7 7 6 5 4 5 5 6 6 6 6 7 7 7 7 8 8 9 10 9 8 8 8 9 10 9 10 10 11 12 13 13 13 13
5 7 8 6 7 7 7 6 8 8 8 6 5 6 7 8 7 6 6 6 7 6 7 7 8 9 10 10 9 9 9 8 9 9 10 10 11 11 13 13 14 13
6 7 7 5 5 4 5 6 8 8 8 6 6 8 9 8 7 7 7 7 7 7 7 8 9 9 9 9 9 9 9 9 9 9 10 11 11 11 12 13 13 12
7 8 9 6 5 5 6 7 8 9 9 9 9 9 9 9 7 7 7 7 8 8 8 8 8 8 8 8 8 9 9 9 10 10 10 11 11 12 11 11 12 13
8 10 11 9 8 7 7 7 6 8 9 10 11 10 10 9 8 8 8 8 8 8 8 8 8 8 8 8 8 8 8 9 8 8 10 11 12 11 11 11 11 12
12 13 13 11 9 9 8 7 7 8 9 10 10 11 10 8 8 8 9 8 8 7 8 8 7 7 7 8 8 8 8 9 8 7 8 10 11 11 11 10 10 11
12 14 12 12 10 9 8 8 8 9 10 11 12 11 10 9 8 9 9 9 8 8 8 8 8 8 9 9 9 8 8 8 9 8 8 9 9 9 9 8 8 9
13 14 13 13 10 10 9 9 9 9 11 12 11 12 11 9 9 9 9 8 8 7 8 8 8 8 9 10 9 8 8 8 8 7 8 9 9 9 7 7 7 7
16 15 15 12 10 11 10 10 10 10 11 10 11 12 11 11 10 9 10 9 8 7 7 8 9 9 10 10 9 8 8 8 8 7 8 9 9 8 8 7 7 7
18 17 15 13 12 12 11 11 12 12 11 10 11 12 12 11 11 10 10 9 8 7 6 8 9 10 10 10 9 8 7 7 7 7 8 9 9 9 9 8 8 8
18 17 16 14 14 14 13 13 13 14 13 11 11 11 11 12 12 11 11 10 8 7 6 7 7 9 10 9 9 9 7 6 6 6 7 7 8 8 8 8 8 8
19 18 16 15 15 16 15 15 15 14 14 14 12 11 12 12 12 12 12 10 9 7 6 6 7 8 10 9 8 8 8 7 6 6 6 7 7 7 7 6 6 7
19 18 19 18 18 18 19 18 17 16 15 15 14 13 13 13 12 12 13 12 10 8 6 5 5 6 9 9 9 9 9 8 7 6 5 6 6 6 6 5 5 5
22 22 22 22 22 22 21 19 18 18 18 18 18 15 13 13 13 13 14 14 13 10 8 7 5 5 7 8 9 9 9 8 7 6 5 5 5 4 4 4 4 4
26 26 26 25 25 25 23 22 21 21 21 21 20 18 17 15 15 15 15 15 14 13 10 9 6 5 6 7 9 9 10 9 8 7 6 5 5 4 3 3 3 3
25 28 29 27 26 25 25 24 23 23 23 22 20 20 19 19 18 17 16 15 15 14 13 11 9 8 6 4 6 10 11 11 11 9 7 7 6 6 4 4 3 3
22 25 28 28 28 27 28 26 24 25 24 23 22 21 20 21 19 17 16 16 15 15 13 12 11 10 6 nan nan 5 10 12 12 12 10 9 7 7 7 6 6 5
19 21 23 26 29 29 28 27 28 27 25 24 23 21 22 21 19 17 16 16 17 15 14 13 12 10 nan nan nan nan 8 11 13 13 13 12 10 9 10 10 9 8
21 20 20 23 26 29 31 31 30 27 26 24 22 22 23 22 19 18 17 17 16 16 14 14 14 12 nan nan nan nan nan 9 13 14 14 14 13 13 12 13 13 12
24 21 20 19 23 28 31 32 30 27 25 26 26 27 26 23 20 19 20 19 17 16 16 15 14 15 nan nan nan nan nan nan 14 13 13 13 14 15 15 15 15 14
26 24 20 20 22 24 28 29 29 29 29 29 28 27 27 25 23 21 21 20 18 17 18 16 15 14 19 17 15 nan nan nan 16 15 13 13 14 15 16 16 17 17
40 27 22 23 21 22 22 23 26 28 30 31 30 29 28 27 26 24 22 21 20 19 18 16 15 16 20 20 18 18 20 23 20 17 14 12 13 14 16 18 18 18
43 43 35 24 23 22 20 20 21 24 28 32 32 30 29 28 27 25 25 24 22 21 18 17 16 19 22 21 21 22 26 24 22 19 16 13 12 14 16 17 18 18
45 42 40 38 28 22 21 20 21 23 25 29 30 30 29 28 29 28 27 26 23 21 20 18 17 21 26 23 23 27 28 26 24 22 17 16 15 15 17 18 16 14
45 43 42 39 38 32 23 21 22 23 25 27 27 28 29 31 31 30 29 27 24 21 22 19 18 22 28 25 26 29 29 26 26 23 19 16 16 16 18 19 18 18
44 43 42 41 40 38 36 27 23 24 25 26 25 26 28 29 31 30 27 27 26 23 23 21 19 21 29 29 29 30 30 28 27 25 19 18 18 19 20 20 19 18
Wind_Direction
198 213 213 184 161 162 174 185 185 184 189 194 196 197 197 202 218 225 218 206 196 186 185 181 178 170 169 175 178 173 166 157 153 152 152 150 145 142 144 144 143 144
207 222 224 209 187 182 182 190 199 194 196 193 179 190 198 209 224 224 220 205 196 185 189 185 180 169 166 171 177 168 168 161 151 159 155 150 150 145 143 145 148 152
216 223 236 228 192 170 153 184 196 197 189 176 174 184 197 210 219 225 213 202 192 182 189 188 183 177 172 174 177 170 163 161 152 154 158 156 156 152 149 151 153 154
217 221 227 221 203 196 184 193 200 198 187 184 176 187 196 205 218 222 212 204 194 189 187 189 184 180 180 181 182 174 166 160 158 162 159 158 158 155 154 155 156 157
221 221 221 219 208 206 199 192 185 196 184 180 186 195 201 206 213 214 211 204 198 191 193 193 195 188 192 190 191 182 176 168 168 171 164 157 158 159 158 159 157 157
217 220 223 218 216 214 198 190 189 190 189 186 187 197 199 204 205 208 206 201 200 198 193 195 197 194 197 198 198 190 180 173 178 179 167 161 158 160 160 162 157 156
224 226 225 216 208 208 200 196 196 193 193 189 200 198 203 201 204 205 203 199 199 206 203 208 209 203 204 205 204 196 189 177 174 177 168 164 162 153 154 158 153 150
220 223 226 220 213 209 204 200 197 201 202 204 199 201 204 199 199 198 197 198 201 209 214 216 219 216 206 207 204 198 187 188 175 170 165 158 159 150 149 156 153 144
219 221 227 228 220 210 206 202 202 202 209 206 198 199 203 197 196 191 197 200 196 207 221 221 225 220 216 213 208 203 191 177 174 166 157 150 146 144 142 147 143 141
215 215 222 226 221 211 207 208 206 205 208 205 204 200 203 201 194 191 194 196 188 198 212 219 225 225 223 221 216 209 199 186 176 169 155 145 141 143 141 141 138 137
211 213 215 221 223 217 212 213 212 209 208 205 204 200 200 204 200 194 193 192 186 186 200 213 219 225 227 223 220 216 209 197 185 176 160 147 144 146 143 137 134 131
213 212 213 219 224 223 219 215 215 213 212 209 205 203 205 202 201 198 193 191 192 195 200 207 217 222 226 224 220 219 217 209 204 193 172 160 156 152 147 141 134 129
219 216 215 217 223 225 224 221 217 216 215 212 211 205 206 200 197 196 196 194 198 202 200 210 219 220 223 226 222 221 221 219 212 209 193 185 173 159 152 144 134 134
222 221 219 219 221 225 228 226 223 220 218 216 216 213 206 202 198 198 198 199 199 201 202 211 220 224 228 226 226 226 227 223 223 216 205 197 187 179 164 152 143 136
229 225 223 223 225 227 229 230 228 226 224 223 222 216 209 204 201 199 200 201 201 204 205 207 204 211 225 233 232 235 233 230 230 228 220 209 202 190 196 193 179 173
239 235 231 230 229 228 230 232 232 232 230 228 224 221 217 213 209 206 202 202 205 209 211 209 208 212 231 273 250 235 241 236 236 234 229 221 217 212 208 221 222 212
244 241 237 236 234 232 231 233 235 235 235 234 231 229 226 225 221 214 206 202 205 210 212 211 210 214 242 nan nan 255 234 236 239 236 237 235 228 222 219 222 228 234
244 243 242 239 238 237 235 234 235 238 238 239 239 236 236 232 229 224 219 213 211 212 211 210 210 218 nan nan nan nan 247 230 228 228 228 231 230 225 225 227 230 235
243 244 245 241 241 241 240 238 237 237 238 240 242 241 239 240 236 235 233 229 222 219 216 213 211 228 nan nan nan nan nan 244 224 222 225 225 227 230 230 232 235 239
241 243 243 245 244 244 243 243 241 239 238 239 239 241 243 243 242 240 238 237 235 229 225 220 217 229 nan nan nan nan nan nan 233 229 225 222 224 227 229 233 239 242
240 242 242 245 248 248 247 247 246 243 241 240 240 243 245 245 243 242 241 243 243 241 235 230 227 237 258 267 269 nan nan nan 247 242 234 228 230 232 233 233 237 241
227 233 243 244 248 251 253 252 250 248 248 246 243 241 241 242 244 244 244 246 246 245 242 238 235 253 264 270 274 273 275 260 257 255 251 244 240 241 239 239 240 241
228 227 225 235 248 252 256 256 255 252 250 247 246 244 243 244 246 248 245 245 248 250 251 247 245 260 272 276 277 280 270 261 263 261 259 257 253 251 251 249 248 247
226 229 229 227 231 245 250 252 253 250 249 249 248 246 244 243 243 244 245 247 250 253 256 253 249 261 277 279 282 282 279 270 267 266 265 263 258 260 258 256 257 265
225 228 230 231 229 229 236 242 247 250 249 249 247 245 242 240 241 241 244 246 250 253 258 259 250 257 276 282 285 285 281 269 270 269 269 267 264 261 262 259 256 261
227 228 230 232 233 231 228 231 238 242 249 251 248 246 243 241 241 242 242 244 247 251 252 258 256 254 268 285 285 287 291 275 270 273 274 274 270 264 260 262 262 258